STARLINK-11150, 60406

Orbit data source: Space-Track

STARLINK-11150, 60406 is a payload satellite owned by SpaceX/Seattle (US) in LEO that was launched on Sat, 10 Aug 2024 UTC via an FALCON 9 launch vehicle from the Air Force Eastern Test Range (AFETR). Payload-class satellites include a variety of spacecraft equipped with specific instruments for various scientific and technological missions. These include communications satellites like Starlink; space stations such as the ISS; scientific satellites like the Hubble; Earth observation satellites from companies like Planet Labs, Umbra, and HawkEye 360; GPS; miniature CubeSats for education and research; and military/defense satellites.

Loading next visibility...
Identifier
60406, 2024-141J
Orbit
LEO
Country
Flag of USUS
Related business
Manufacturer
SpaceX/Seattle
Mission
Operational Commercial Communications
Bus & Motor
STARLINK V2MD, Unknown motor
Mass
960 kg wet, ~910 kg dry
Launch date (UTC)
2024-08-10 (1 year ago)
Launch vehicle
FALCON 9
Launch site
Air Force Eastern Test Range (AFETR)
Object type
Payload
Rocket body
Debris
Shape & HBR
Box + 2 Pan, 14.5 m
Radar Cross Section
36.964 m², Large (>1 m²)

Expand to show TLE details & history
Last TLE update: 23 hours ago

TLE from 23 hours ago
0 STARLINK-11150
1 60406U 24141J   25260.27521703 -.00002038  00000-0 -11950-4 0  9995
2 60406  53.1579 221.3177 0002033  92.1602 267.9649 15.69712255 64500
Epoch: 2025-09-17T06:36Z
TLE epoch observation values (Epoch: 2025-09-17T06:36:18.751Z)
Latitude
0.00001°
Longitude
125.78607°
Altitude
360.684 km
Speed
7.694 km/s
True Right ascension
14h 45m 16s
True Declination
0° 00' 00"
Sunlit
Object was in daylight at epoch
Visualization orbit readout
Latitude
Unknown
Longitude
Unknown
Altitude
Unknown
Speed
Unknown
Apparent Right ascension
Unknown
Apparent Declination
Unknown
Sunlit
N/A
Visualization observer readout
Local Sidereal Time
22:01:02
Azimuth
Unknown
Elevation
Unknown
Doppler factor
Unknown
Orbital elements
Apogee altitude
361.351 km
Perigee altitude
358.611 km
Semi-major axis
6,738.118 km
Eccentricity
0.0002
Inclination
53.1579°
RAAN
221.3177°
Arg. of periapsis
92.1602°
True anomaly
267.94162°
Mean anomaly
267.9649°
Eccentric anomaly
267.95326°
Mean motion
3.92406 °/min
Orbital period
91.74 mins
BSTAR
-0.00001195
Loading maneuver chart data...
Computing Atmospheric mass density...
Loading historical data...
Loading historical data...
Loading historical data...
Loading historical data...
Loading historical data...
Loading historical data...
Loading historical data...

Documentation

Showing up to 5 results
|